| time (UTC) | temp F | wind direction | speed MPH | gust MPH | rain 1hr in | rain 24hr in | rain mn in | humidity % | barometer mb |
| 20260901034605 | 0 | 240 | 3.0 | 5.0 | 0.00 | 0.00 | 0.08 | 75 | 1016.5 |
| 20260901034245 | 0 | 193 | 3.0 | 6.0 | 0.00 | 0.00 | 0.08 | 74 | 1016.5 |
| 20260901033925 | 0 | 223 | 2.0 | 4.0 | 0.00 | 0.00 | 0.08 | 76 | 1016.5 |
| 20260901033604 | 0 | 177 | 3.0 | 8.0 | 0.00 | 0.00 | 0.08 | 75 | 1016.7 |
| 20260901033244 | 0 | 220 | 6.0 | 10.0 | 0.00 | 0.00 | 0.08 | 74 | 1016.7 |
| 20260901032924 | 0 | 180 | 3.0 | 4.0 | 0.00 | 0.00 | 0.08 | 76 | 1016.7 |
| 20260901032604 | 0 | 196 | 7.0 | 11.0 | 0.00 | 0.00 | 0.08 | 75 | 1016.8 |
| 20260901031925 | 0 | 226 | 8.0 | 11.0 | 0.00 | 0.00 | 0.08 | 75 | 1016.7 |
| 20260901031604 | 0 | 233 | 6.0 | 9.0 | 0.00 | 0.00 | 0.08 | 76 | 1016.6 |
| 20260901031244 | 0 | 230 | 4.0 | 7.0 | 0.00 | 0.00 | 0.08 | 77 | 1016.5 |
| 20260901030924 | 0 | 266 | 5.0 | 7.0 | 0.00 | 0.00 | 0.08 | 75 | 1016.8 |
| 20260901030604 | 0 | 228 | 2.0 | 4.0 | 0.00 | 0.00 | 0.08 | 77 | 1016.6 |
| 20260901030244 | 0 | 184 | 3.0 | 4.0 | 0.00 | 0.00 | 0.08 | 78 | 1016.8 |
| 20260901025923 | 0 | 0 | 0.0 | 0.0 | 0.00 | 0.00 | 0.00 | 14.5 | |
| 20260901025603 | 0 | 357 | 5.0 | 8.0 | 0.00 | 0.00 | 0.08 | 75 | 1016.5 |
| 20260901024924 | 0 | 229 | 3.0 | 5.0 | 0.00 | 0.00 | 0.08 | 76 | 1016.6 |
| 20260901024604 | 0 | 205 | 5.0 | 7.0 | 0.00 | 0.00 | 0.08 | 75 | 1016.8 |
| 20260901024244 | 0 | 207 | 5.0 | 7.0 | 0.00 | 0.00 | 0.08 | 76 | 1016.5 |
| 20260901023924 | 0 | 229 | 5.0 | 6.0 | 0.00 | 0.00 | 0.08 | 75 | 1016.5 |
| 20260901023603 | 0 | 254 | 5.0 | 8.0 | 0.00 | 0.00 | 0.08 | 76 | 1016.6 |
| 20260901023243 | 0 | 188 | 2.0 | 3.0 | 0.00 | 0.00 | 0.08 | 77 | 1016.4 |
| 20260901022923 | 0 | 260 | 3.0 | 5.0 | 0.00 | 0.00 | 0.08 | 75 | 1016.7 |
| 20260901022603 | 0 | 236 | 8.0 | 9.0 | 0.00 | 0.00 | 0.08 | 76 | 1016.4 |
| 20260901021924 | 0 | 246 | 4.0 | 7.0 | 0.00 | 0.00 | 0.08 | 76 | 1016.2 |
| 20260901021603 | 0 | 253 | 2.0 | 4.0 | 0.00 | 0.00 | 0.08 | 79 | 1016.4 |
| 20260901021243 | 0 | 197 | 9.0 | 13.0 | 0.00 | 0.00 | 0.08 | 77 | 1016.5 |
| 20260901020923 | 0 | 210 | 2.0 | 2.0 | 0.00 | 0.00 | 0.08 | 79 | 1016.4 |
| 20260901020602 | 0 | 204 | 2.0 | 6.0 | 0.00 | 0.00 | 0.08 | 79 | 1016.2 |
| 20260901020242 | 0 | 0 | 0.0 | 0.0 | 0.00 | 0.00 | 0.00 | 14.5 | |
| 20260901015922 | 0 | 244 | 4.0 | 6.0 | 0.00 | 0.00 | 0.08 | 81 | 1016.1 |
| 20260901015602 | 0 | 184 | 2.0 | 3.0 | 0.00 | 0.00 | 0.08 | 82 | 1016.2 |
| 20260901014924 | 0 | 261 | 6.0 | 8.0 | 0.00 | 0.00 | 0.08 | 80 | 1016.0 |
| 20260901014602 | 0 | 173 | 5.0 | 8.0 | 0.00 | 0.00 | 0.08 | 81 | 1015.7 |
| 20260901014243 | 0 | 182 | 3.0 | 5.0 | 0.00 | 0.00 | 0.08 | 81 | 1015.8 |
| 20260901013923 | 0 | 203 | 1.0 | 3.0 | 0.00 | 0.00 | 0.08 | 82 | 1016.1 |
| 20260901013601 | 0 | 268 | 3.0 | 4.0 | 0.00 | 0.00 | 0.08 | 81 | 1015.8 |
| 20260901013241 | 0 | 255 | 4.0 | 7.0 | 0.00 | 0.00 | 0.08 | 82 | 1015.9 |
| 20260901012921 | 0 | 194 | 2.0 | 2.0 | 0.00 | 0.00 | 0.08 | 83 | 1015.9 |
| 20260901012601 | 0 | 248 | 2.0 | 3.0 | 0.00 | 0.00 | 0.08 | 83 | 1015.6 |
| 20260901011923 | 0 | 197 | 3.0 | 5.0 | 0.00 | 0.00 | 0.08 | 85 | 1015.8 |
| 20260901011602 | 0 | 231 | 1.0 | 1.0 | 0.00 | 0.00 | 0.08 | 85 | 1015.6 |
| 20260901011242 | 0 | 190 | 1.0 | 2.0 | 0.00 | 0.00 | 0.08 | 85 | 1015.9 |
| 20260901010922 | 0 | 251 | 1.0 | 2.0 | 0.00 | 0.00 | 0.08 | 85 | 1015.7 |
| 20260901010601 | 0 | 204 | 5.0 | 8.0 | 0.00 | 0.00 | 0.08 | 85 | 1015.4 |
| 20260901010241 | 0 | 227 | 4.0 | 5.0 | 0.00 | 0.00 | 0.08 | 85 | 1015.4 |
| 20260901005920 | 0 | 272 | 1.0 | 2.0 | 0.00 | 0.00 | 0.08 | 85 | 1015.5 |
| 20260901005600 | 0 | 240 | 4.0 | 5.0 | 0.00 | 0.00 | 0.08 | 86 | 1015.6 |
| 20260901004921 | 0 | 195 | 1.0 | 2.0 | 0.00 | 0.00 | 0.08 | 87 | 1015.4 |
| 20260901004600 | 0 | 315 | 0.0 | 1.0 | 0.00 | 0.00 | 0.08 | 86 | 1015.3 |
| 20260901004241 | 0 | 173 | 0.0 | 1.0 | 0.00 | 0.00 | 0.08 | 86 | 1015.3 |
| 20260901003921 | 0 | 335 | 0.0 | 0.0 | 0.00 | 0.00 | 0.08 | 87 | 1015.3 |
| 20260901003600 | 0 | 191 | 3.0 | 4.0 | 0.00 | 0.00 | 0.08 | 86 | 1015.2 |
| 20260901003240 | 0 | 246 | 4.0 | 5.0 | 0.00 | 0.00 | 0.08 | 86 | 1015.5 |
| 20260901002920 | 0 | 195 | 2.0 | 2.0 | 0.00 | 0.00 | 0.08 | 87 | 1015.2 |
| 20260901002559 | 0 | 165 | 1.0 | 2.0 | 0.00 | 0.00 | 0.08 | 88 | 1015.2 |
| 20260901001922 | 0 | 249 | 2.0 | 3.0 | 0.00 | 0.00 | 0.08 | 87 | 1015.1 |
| 20260901001601 | 0 | 258 | 3.0 | 5.0 | 0.00 | 0.00 | 0.08 | 87 | 1015.1 |
| 20260901001241 | 0 | 188 | 0.0 | 0.0 | 0.00 | 0.00 | 0.08 | 88 | 1014.9 |
| 20260901000921 | 0 | 250 | 2.0 | 3.0 | 0.00 | 0.00 | 0.08 | 88 | 1015.0 |
| 20260901000559 | 0 | 234 | 1.0 | 2.0 | 0.00 | 0.00 | 0.08 | 88 | 1014.9 |
| 20260901000241 | 0 | 277 | 0.0 | 0.0 | 0.00 | 0.00 | 0.08 | 88 | 1014.8 |
| 20260831235919 | 0 | 232 | 0.0 | 0.0 | 0.00 | 0.00 | 0.08 | 88 | 1015.0 |
| 20260831235559 | 0 | 230 | 2.0 | 2.0 | 0.00 | 0.00 | 0.08 | 89 | 1014.8 |
| 20260831234921 | 0 | 214 | 0.0 | 1.0 | 0.00 | 0.00 | 0.08 | 89 | 1014.9 |
| 20260831234600 | 0 | 204 | 0.0 | 0.0 | 0.00 | 0.00 | 0.08 | 89 | 1014.7 |
| 20260831234239 | 0 | 190 | 1.0 | 1.0 | 0.00 | 0.00 | 0.08 | 89 | 1014.6 |
| 20260831233919 | 0 | 215 | 0.0 | 0.0 | 0.00 | 0.00 | 0.08 | 90 | 1014.8 |
| 20260831233558 | 0 | 207 | 0.0 | 1.0 | 0.00 | 0.00 | 0.08 | 90 | 1014.7 |
| 20260831233239 | 0 | 226 | 3.0 | 4.0 | 0.00 | 0.00 | 0.08 | 90 | 1014.6 |
| 20260831232918 | 0 | 230 | 1.0 | 3.0 | 0.00 | 0.00 | 0.08 | 90 | 1014.7 |
| 20260831232558 | 0 | 192 | 0.0 | 0.0 | 0.00 | 0.00 | 0.08 | 90 | 1014.6 |
| 20260831231919 | 0 | 273 | 0.0 | 0.0 | 0.00 | 0.00 | 0.08 | 90 | 1014.7 |
| 20260831231558 | 0 | 171 | 0.0 | 1.0 | 0.00 | 0.00 | 0.08 | 90 | 1014.6 |
| 20260831231238 | 0 | 216 | 0.0 | 1.0 | 0.00 | 0.00 | 0.08 | 90 | 1014.7 |
| 20260831230918 | 0 | 180 | 0.0 | 0.0 | 0.00 | 0.00 | 0.08 | 90 | 1014.6 |
| 20260831230558 | 0 | 215 | 1.0 | 2.0 | 0.00 | 0.00 | 0.08 | 90 | 1014.7 |
| 20260831230238 | 0 | 198 | 1.0 | 2.0 | 0.00 | 0.00 | 0.08 | 91 | 1014.6 |
| 20260831225918 | 0 | 188 | 0.0 | 1.0 | 0.00 | 0.00 | 0.08 | 91 | 1014.4 |
| 20260831225600 | 0 | 203 | 1.0 | 1.0 | 0.00 | 0.00 | 0.08 | 90 | 1014.7 |
| 20260831224920 | 0 | 222 | 1.0 | 2.0 | 0.00 | 0.00 | 0.08 | 91 | 1014.8 |
| 20260831224558 | 0 | 190 | 0.0 | 0.0 | 0.00 | 0.00 | 0.08 | 91 | 1014.8 |
| 20260831224238 | 0 | 175 | 0.0 | 0.0 | 0.00 | 0.00 | 0.08 | 91 | 1014.5 |
| 20260831223919 | 0 | 173 | 1.0 | 2.0 | 0.00 | 0.00 | 0.08 | 91 | 1014.5 |
| 20260831223557 | 0 | 169 | 0.0 | 0.0 | 0.00 | 0.00 | 0.08 | 91 | 1014.6 |
| 20260831223237 | 0 | 172 | 0.0 | 1.0 | 0.00 | 0.00 | 0.08 | 90 | 1014.7 |
| 20260831222917 | 0 | 214 | 1.0 | 1.0 | 0.00 | 0.00 | 0.08 | 90 | 1014.6 |
| 20260831222557 | 0 | 182 | 1.0 | 2.0 | 0.00 | 0.00 | 0.08 | 91 | 1014.6 |
| 20260831221920 | 0 | 209 | 0.0 | 0.0 | 0.00 | 0.00 | 0.08 | 91 | 1014.8 |
| 20260831221559 | 0 | 194 | 0.0 | 0.0 | 0.00 | 0.00 | 0.08 | 91 | 1014.7 |
| 20260831221239 | 0 | 199 | 0.0 | 1.0 | 0.00 | 0.00 | 0.08 | 91 | 1014.8 |
| 20260831220918 | 0 | 201 | 1.0 | 2.0 | 0.00 | 0.00 | 0.08 | 91 | 1014.5 |
| 20260831220558 | 0 | 195 | 0.0 | 0.0 | 0.00 | 0.00 | 0.08 | 91 | 1014.6 |
| 20260831220238 | 0 | 201 | 0.0 | 0.0 | 0.00 | 0.00 | 0.08 | 91 | 1014.7 |
| 20260831215918 | 0 | 172 | 0.0 | 0.0 | 0.00 | 0.01 | 0.08 | 91 | 1014.5 |
| 20260831215558 | 0 | 194 | 0.0 | 0.0 | 0.00 | 0.01 | 0.08 | 91 | 1014.5 |
| 20260831214917 | 0 | 167 | 0.0 | 0.0 | 0.00 | 0.01 | 0.08 | 90 | 1014.6 |
| 20260831214556 | 0 | 207 | 0.0 | 0.0 | 0.00 | 0.01 | 0.08 | 90 | 1014.7 |
| 20260831214236 | 0 | 308 | 0.0 | 0.0 | 0.00 | 0.01 | 0.08 | 90 | 1014.7 |
| 20260831213916 | 0 | 302 | 0.0 | 0.0 | 0.00 | 0.01 | 0.08 | 90 | 1014.4 |
| 20260831213556 | 0 | 299 | 0.0 | 0.0 | 0.00 | 0.01 | 0.08 | 90 | 1014.6 |
| 20260831213236 | 0 | 288 | 0.0 | 0.0 | 0.00 | 0.01 | 0.08 | 90 | 1014.4 |
| 20260831212915 | 0 | 178 | 0.0 | 0.0 | 0.00 | 0.01 | 0.08 | 90 | 1014.4 |
| 20260831212555 | 0 | 173 | 0.0 | 0.0 | 0.00 | 0.01 | 0.08 | 90 | 1014.4 |
| 20260831211918 | 0 | 184 | 0.0 | 1.0 | 0.00 | 0.01 | 0.08 | 91 | 1014.3 |
| 20260831211557 | 0 | 207 | 0.0 | 0.0 | 0.00 | 0.01 | 0.08 | 91 | 1014.3 |
| 20260831211237 | 0 | 173 | 0.0 | 0.0 | 0.07 | 0.01 | 0.08 | 91 | 1014.1 |
| 20260831210917 | 0 | 199 | 0.0 | 1.0 | 0.07 | 0.01 | 0.08 | 91 | 1014.3 |
| 20260831210555 | 0 | 168 | 0.0 | 0.0 | 0.07 | 0.01 | 0.08 | 91 | 1014.4 |
| 20260831210236 | 0 | 204 | 1.0 | 2.0 | 0.00 | 0.00 | 0.07 | 92 | 1014.2 |
| 20260831205914 | 0 | 175 | 0.0 | 0.0 | 0.00 | 0.00 | 0.07 | 92 | 1014.4 |
| 20260831205554 | 0 | 160 | 0.0 | 0.0 | 0.00 | 0.00 | 0.07 | 92 | 1014.1 |
| 20260831204916 | 0 | 170 | 0.0 | 0.0 | 0.00 | 0.00 | 0.07 | 93 | 1014.2 |
| 20260831204555 | 0 | 165 | 0.0 | 0.0 | 0.00 | 0.00 | 0.07 | 93 | 1014.1 |
| 20260831204235 | 0 | 168 | 0.0 | 0.0 | 0.00 | 0.00 | 0.07 | 93 | 1013.9 |
| 20260831203915 | 0 | 170 | 0.0 | 0.0 | 0.00 | 0.00 | 0.07 | 93 | 1014.1 |
| 20260831203554 | 0 | 343 | 0.0 | 0.0 | 0.00 | 0.00 | 0.07 | 93 | 1014.0 |
| 20260831203234 | 0 | 353 | 0.0 | 0.0 | 0.00 | 0.00 | 0.07 | 93 | 1014.2 |
| 20260831202914 | 0 | 347 | 0.0 | 0.0 | 0.00 | 0.00 | 0.07 | 93 | 1014.4 |
| 20260831202556 | 0 | 353 | 0.0 | 0.0 | 0.00 | 0.00 | 0.07 | 93 | 1014.0 |
| 20260831201915 | 0 | 5 | 0.0 | 0.0 | 0.00 | 0.00 | 0.07 | 93 | 1014.1 |
| 20260831201554 | 0 | 351 | 0.0 | 0.0 | 0.00 | 0.00 | 0.07 | 93 | 1014.1 |
| 20260831201234 | 0 | 0 | 0.0 | 0.0 | 0.00 | 0.00 | 0.07 | 92 | 1014.4 |
| 20260831200914 | 0 | 353 | 0.0 | 0.0 | 0.00 | 0.00 | 0.07 | 92 | 1014.0 |
| 20260831200553 | 0 | 343 | 0.0 | 0.0 | 0.00 | 0.00 | 0.07 | 92 | 1014.0 |
| 20260831200233 | 0 | 339 | 0.0 | 0.0 | 0.00 | 0.00 | 0.07 | 91 | 1014.2 |
| 20260831195913 | 0 | 331 | 0.0 | 0.0 | 0.00 | 0.03 | 0.07 | 91 | 1014.1 |
| 20260831195553 | 0 | 336 | 0.0 | 0.0 | 0.00 | 0.03 | 0.07 | 91 | 1014.0 |
| 20260831194914 | 0 | 184 | 0.0 | 0.0 | 0.00 | 0.03 | 0.07 | 91 | 1014.2 |
| 20260831194553 | 0 | 182 | 0.0 | 0.0 | 0.00 | 0.03 | 0.07 | 91 | 1014.3 |
| 20260831194234 | 0 | 267 | 0.0 | 0.0 | 0.00 | 0.03 | 0.07 | 91 | 1014.2 |
| 20260831193914 | 0 | 306 | 0.0 | 0.0 | 0.00 | 0.03 | 0.07 | 91 | 1014.6 |
| 20260831193553 | 0 | 270 | 0.0 | 1.0 | 0.07 | 0.03 | 0.07 | 92 | 1014.5 |
| 20260831193233 | 0 | 172 | 0.0 | 0.0 | 0.07 | 0.03 | 0.07 | 91 | 1014.4 |
| 20260831192912 | 0 | 307 | 0.0 | 0.0 | 0.07 | 0.03 | 0.07 | 91 | 1014.3 |
| 20260831192553 | 0 | 163 | 0.0 | 0.0 | 0.00 | 0.02 | 0.06 | 92 | 1014.4 |
| 20260831191913 | 0 | 159 | 0.0 | 0.0 | 0.07 | 0.02 | 0.06 | 92 | 1014.4 |
| 20260831191553 | 0 | 162 | 0.0 | 0.0 | 0.07 | 0.02 | 0.06 | 92 | 1014.6 |
| 20260831191232 | 0 | 306 | 0.0 | 0.0 | 0.07 | 0.01 | 0.04 | 93 | 1014.4 |
| 20260831190912 | 0 | 8 | 0.0 | 0.0 | 0.07 | 0.01 | 0.04 | 93 | 1014.7 |
| 20260831190552 | 0 | 353 | 0.0 | 0.0 | 0.07 | 0.01 | 0.04 | 93 | 1014.5 |
| 20260831190232 | 0 | 348 | 0.0 | 0.0 | 0.00 | 0.00 | 0.03 | 93 | 1014.6 |
| 20260831185911 | 0 | 3 | 0.0 | 0.0 | 0.00 | 0.01 | 0.03 | 93 | 1014.7 |
| 20260831185551 | 0 | 358 | 0.0 | 0.0 | 0.00 | 0.01 | 0.03 | 93 | 1014.8 |
| 20260831184914 | 0 | 349 | 0.0 | 0.0 | 0.00 | 0.01 | 0.03 | 93 | 1014.7 |
| 20260831184553 | 0 | 352 | 0.0 | 0.0 | 0.00 | 0.01 | 0.03 | 93 | 1014.6 |
| 20260831184233 | 0 | 351 | 0.0 | 0.0 | 0.00 | 0.01 | 0.03 | 92 | 1014.7 |
| 20260831183913 | 0 | 351 | 0.0 | 0.0 | 0.00 | 0.01 | 0.03 | 92 | 1014.8 |
| 20260831183551 | 0 | 349 | 0.0 | 0.0 | 0.00 | 0.01 | 0.03 | 92 | 1014.7 |
| 20260831183233 | 0 | 347 | 0.0 | 0.0 | 0.00 | 0.01 | 0.03 | 92 | 1014.8 |
| 20260831182911 | 0 | 343 | 0.0 | 0.0 | 0.07 | 0.01 | 0.03 | 91 | 1014.9 |
| 20260831182551 | 0 | 340 | 0.0 | 0.0 | 0.07 | 0.01 | 0.03 | 91 | 1014.7 |
| 20260831181912 | 0 | 338 | 0.0 | 0.0 | 0.00 | 0.00 | 0.02 | 91 | 1014.8 |
| 20260831181551 | 0 | 340 | 0.0 | 0.0 | 0.00 | 0.00 | 0.02 | 91 | 1014.7 |
| 20260831181231 | 0 | 269 | 0.0 | 0.0 | 0.00 | 0.00 | 0.02 | 91 | 1014.9 |
| 20260831180914 | 0 | 338 | 0.0 | 0.0 | 0.00 | 0.00 | 0.02 | 91 | 1015.0 |
| 20260831180550 | 0 | 338 | 0.0 | 0.0 | 0.00 | 0.00 | 0.02 | 91 | 1015.3 |
| 20260831180230 | 0 | 325 | 0.0 | 0.0 | 0.00 | 0.00 | 0.02 | 91 | 1015.0 |
| 20260831175911 | 0 | 340 | 0.0 | 0.0 | 0.00 | 0.02 | 0.02 | 92 | 1015.1 |
| 20260831175551 | 0 | 340 | 0.0 | 0.0 | 0.00 | 0.02 | 0.02 | 91 | 1015.3 |
| 20260831174912 | 0 | 333 | 0.0 | 0.0 | 0.07 | 0.02 | 0.02 | 90 | 1015.3 |
| 20260831174551 | 0 | 329 | 0.0 | 0.0 | 0.07 | 0.02 | 0.02 | 90 | 1015.4 |
| 20260831174230 | 0 | 309 | 0.0 | 1.0 | 0.07 | 0.02 | 0.02 | 90 | 1015.7 |
| 20260831173911 | 0 | 312 | 0.0 | 0.0 | 0.00 | 0.01 | 0.01 | 90 | 1015.7 |
| 20260831173550 | 0 | 267 | 2.0 | 2.0 | 0.00 | 0.01 | 0.01 | 90 | 1015.5 |
| 20260831173230 | 0 | 253 | 0.0 | 1.0 | 0.00 | 0.01 | 0.01 | 91 | 1015.5 |
| 20260831172909 | 0 | 272 | 1.0 | 1.0 | 0.00 | 0.01 | 0.01 | 91 | 1015.5 |
| 20260831172549 | 0 | 327 | 0.0 | 0.0 | 0.00 | 0.01 | 0.01 | 91 | 1015.4 |
| 20260831171911 | 0 | 358 | 0.0 | 0.0 | 0.00 | 0.01 | 0.01 | 92 | 1015.5 |
| 20260831171550 | 0 | 354 | 0.0 | 0.0 | 0.00 | 0.01 | 0.01 | 91 | 1015.7 |
| 20260831171230 | 0 | 343 | 0.0 | 0.0 | 0.07 | 0.01 | 0.01 | 90 | 1015.7 |
| 20260831170909 | 0 | 340 | 0.0 | 0.0 | 0.07 | 0.01 | 0.01 | 90 | 1015.6 |
| 20260831170549 | 0 | 327 | 0.0 | 0.0 | 0.07 | 0.01 | 0.01 | 90 | 1015.6 |
| 20260831170229 | 0 | 0 | 0.0 | 0.0 | 0.00 | 0.00 | 0.00 | 14.5 | |
| 20260831165909 | 0 | 348 | 0.0 | 0.0 | 0.00 | 0.03 | 0.06 | 91 | 1015.7 |
| 20260831165549 | 0 | 320 | 1.0 | 1.0 | 0.00 | 0.03 | 0.06 | 90 | 1015.9 |
| 20260831164910 | 0 | 353 | 0.0 | 0.0 | 0.07 | 0.03 | 0.06 | 90 | 1015.9 |
| 20260831164550 | 0 | 330 | 0.0 | 0.0 | 0.00 | 0.02 | 0.04 | 90 | 1015.9 |
| 20260831164229 | 0 | 303 | 0.0 | 0.0 | 0.07 | 0.02 | 0.04 | 90 | 1016.1 |
| 20260831163909 | 0 | 202 | 2.0 | 4.0 | 0.07 | 0.02 | 0.04 | 89 | 1016.1 |
| 20260831163549 | 0 | 331 | 0.0 | 0.0 | 0.07 | 0.02 | 0.04 | 89 | 1016.0 |
| 20260831163229 | 0 | 242 | 2.0 | 2.0 | 0.00 | 0.01 | 0.03 | 89 | 1016.0 |
| 20260831162909 | 0 | 225 | 1.0 | 2.0 | 0.00 | 0.01 | 0.03 | 90 | 1016.0 |
| 20260831162549 | 0 | 197 | 0.0 | 1.0 | 0.00 | 0.01 | 0.03 | 90 | 1016.1 |
| 20260831161910 | 0 | 345 | 0.0 | 0.0 | 0.07 | 0.01 | 0.03 | 90 | 1016.0 |
| 20260831161549 | 0 | 331 | 0.0 | 0.0 | 0.07 | 0.01 | 0.03 | 90 | 1015.8 |
| 20260831161229 | 0 | 318 | 1.0 | 1.0 | 0.00 | 0.00 | 0.02 | 89 | 1016.2 |
| 20260831160909 | 0 | 315 | 1.0 | 1.0 | 0.00 | 0.00 | 0.02 | 89 | 1016.0 |
| 20260831160548 | 0 | 348 | 0.0 | 0.0 | 0.00 | 0.00 | 0.02 | 89 | 1016.0 |
| 20260831160229 | 0 | 316 | 0.0 | 0.0 | 0.00 | 0.00 | 0.02 | 89 | 1016.0 |
| 20260831155908 | 0 | 336 | 0.0 | 1.0 | 0.00 | 0.02 | 0.02 | 89 | 1016.0 |
| 20260831155548 | 0 | 347 | 0.0 | 2.0 | 0.00 | 0.02 | 0.02 | 89 | 1016.1 |
| 20260831154910 | 0 | 237 | 3.0 | 5.0 | 0.00 | 0.02 | 0.02 | 88 | 1016.1 |
| 20260831154549 | 0 | 303 | 0.0 | 0.0 | 0.00 | 0.02 | 0.02 | 89 | 1016.1 |
| 20260831154229 | 0 | 336 | 0.0 | 1.0 | 0.00 | 0.02 | 0.02 | 88 | 1016.2 |
| 20260831153909 | 0 | 279 | 2.0 | 3.0 | 0.07 | 0.02 | 0.02 | 88 | 1016.4 |
| 20260831153547 | 0 | 295 | 2.0 | 2.0 | 0.07 | 0.02 | 0.02 | 88 | 1016.4 |
| 20260831153228 | 0 | 334 | 1.0 | 2.0 | 0.07 | 0.02 | 0.02 | 88 | 1016.2 |
| 20260831152907 | 0 | 342 | 1.0 | 1.0 | 0.00 | 0.01 | 0.01 | 88 | 1016.3 |
| 20260831152547 | 0 | 333 | 2.0 | 2.0 | 0.00 | 0.01 | 0.01 | 87 | 1016.3 |
| 20260831151908 | 0 | 297 | 2.0 | 3.0 | 0.07 | 0.01 | 0.01 | 87 | 1016.1 |
| 20260831151547 | 0 | 191 | 1.0 | 2.0 | 0.07 | 0.01 | 0.01 | 86 | 1016.0 |
| 20260831151227 | 0 | 290 | 0.0 | 0.0 | 0.00 | 0.00 | 0.00 | 85 | 1016.1 |
| 20260831150907 | 0 | 182 | 3.0 | 3.0 | 0.00 | 0.00 | 0.00 | 84 | 1016.1 |
| 20260831150547 | 0 | 253 | 3.0 | 5.0 | 0.00 | 0.00 | 0.00 | 84 | 1016.1 |
| 20260831150226 | 0 | 295 | 2.0 | 4.0 | 0.00 | 0.00 | 0.00 | 84 | 1015.9 |
| 20260831145906 | 0 | 339 | 2.0 | 3.0 | 0.00 | 0.00 | 0.00 | 83 | 1016.0 |
| 20260831145546 | 0 | 270 | 5.0 | 7.0 | 0.00 | 0.00 | 0.00 | 83 | 1015.8 |
| 20260831144907 | 0 | 253 | 2.0 | 4.0 | 0.00 | 0.00 | 0.00 | 81 | 1015.8 |
| 20260831144546 | 0 | 204 | 0.0 | 2.0 | 0.00 | 0.00 | 0.00 | 81 | 1015.6 |
| 20260831144226 | 0 | 257 | 1.0 | 2.0 | 0.00 | 0.00 | 0.00 | 81 | 1015.8 |
| 20260831143906 | 0 | 189 | 5.0 | 8.0 | 0.00 | 0.00 | 0.00 | 82 | 1015.8 |
| 20260831143546 | 0 | 244 | 4.0 | 5.0 | 0.00 | 0.00 | 0.00 | 81 | 1015.5 |
| 20260831143225 | 0 | 162 | 1.0 | 2.0 | 0.00 | 0.00 | 0.00 | 81 | 1015.6 |
| 20260831142906 | 0 | 224 | 4.0 | 5.0 | 0.00 | 0.00 | 0.00 | 80 | 1015.2 |
| 20260831142546 | 0 | 231 | 4.0 | 7.0 | 0.00 | 0.00 | 0.00 | 81 | 1015.4 |
| 20260831141907 | 0 | 225 | 5.0 | 6.0 | 0.00 | 0.00 | 0.00 | 81 | 1015.4 |
| 20260831141546 | 0 | 200 | 3.0 | 5.0 | 0.00 | 0.00 | 0.00 | 83 | 1015.4 |
| 20260831141226 | 0 | 316 | 0.0 | 2.0 | 0.00 | 0.00 | 0.00 | 83 | 1015.1 |
| 20260831140906 | 0 | 180 | 2.0 | 3.0 | 0.00 | 0.00 | 0.00 | 84 | 1015.2 |
| 20260831140545 | 0 | 251 | 2.0 | 2.0 | 0.00 | 0.00 | 0.00 | 84 | 1014.9 |
| 20260831140225 | 0 | 170 | 0.0 | 0.0 | 0.00 | 0.00 | 0.00 | 84 | 1014.7 |
| 20260831135905 | 0 | 222 | 0.0 | 1.0 | 0.00 | 0.00 | 0.00 | 85 | 1014.9 |
| 20260831135545 | 0 | 169 | 1.0 | 2.0 | 0.00 | 0.00 | 0.00 | 84 | 1014.8 |
| 20260831134906 | 0 | 243 | 1.0 | 1.0 | 0.00 | 0.00 | 0.00 | 84 | 1014.7 |
| 20260831134545 | 0 | 266 | 0.0 | 2.0 | 0.00 | 0.00 | 0.00 | 83 | 1014.8 |
| 20260831134225 | 0 | 228 | 0.0 | 1.0 | 0.00 | 0.00 | 0.00 | 83 | 1014.7 |
| 20260831133906 | 0 | 187 | 0.0 | 1.0 | 0.00 | 0.00 | 0.00 | 82 | 1014.7 |
| 20260831133544 | 0 | 245 | 1.0 | 3.0 | 0.00 | 0.00 | 0.00 | 82 | 1014.5 |
| 20260831133224 | 0 | 170 | 2.0 | 4.0 | 0.00 | 0.00 | 0.00 | 82 | 1014.6 |
| 20260831132904 | 0 | 262 | 2.0 | 4.0 | 0.00 | 0.00 | 0.00 | 82 | 1014.4 |
| 20260831132544 | 0 | 170 | 1.0 | 1.0 | 0.00 | 0.00 | 0.00 | 83 | 1014.5 |
| 20260831131905 | 0 | 246 | 4.0 | 6.0 | 0.00 | 0.00 | 0.00 | 82 | 1014.5 |
| 20260831131544 | 0 | 275 | 2.0 | 2.0 | 0.00 | 0.00 | 0.00 | 83 | 1014.3 |
| 20260831131224 | 0 | 241 | 1.0 | 2.0 | 0.00 | 0.00 | 0.00 | 84 | 1014.4 |
| 20260831130904 | 0 | 230 | 3.0 | 5.0 | 0.00 | 0.00 | 0.00 | 83 | 1014.3 |
| 20260831130543 | 0 | 200 | 1.0 | 1.0 | 0.00 | 0.00 | 0.00 | 84 | 1014.2 |
| 20260831130223 | 0 | 218 | 4.0 | 5.0 | 0.00 | 0.00 | 0.00 | 84 | 1014.3 |
| 20260831125903 | 0 | 233 | 2.0 | 3.0 | 0.00 | 0.00 | 0.00 | 84 | 1014.0 |
| 20260831125543 | 0 | 233 | 2.0 | 3.0 | 0.00 | 0.00 | 0.00 | 84 | 1014.0 |
| 20260831124905 | 0 | 227 | 2.0 | 4.0 | 0.00 | 0.00 | 0.00 | 84 | 1014.1 |
| 20260831124544 | 0 | 196 | 3.0 | 5.0 | 0.00 | 0.00 | 0.00 | 83 | 1014.0 |
| 20260831124224 | 0 | 259 | 4.0 | 7.0 | 0.00 | 0.00 | 0.00 | 83 | 1014.2 |
| 20260831123904 | 0 | 298 | 0.0 | 1.0 | 0.00 | 0.00 | 0.00 | 82 | 1014.1 |
| 20260831123543 | 0 | 194 | 1.0 | 2.0 | 0.00 | 0.00 | 0.00 | 82 | 1013.9 |
| 20260831123223 | 0 | 282 | 2.0 | 2.0 | 0.00 | 0.00 | 0.00 | 82 | 1013.9 |
| 20260831122903 | 0 | 178 | 3.0 | 4.0 | 0.00 | 0.00 | 0.00 | 82 | 1013.8 |
| 20260831122543 | 0 | 178 | 3.0 | 4.0 | 0.00 | 0.00 | 0.00 | 82 | 1013.8 |
| 20260831121904 | 0 | 5 | 0.0 | 1.0 | 0.00 | 0.00 | 0.00 | 82 | 1013.5 |
| 20260831121543 | 0 | 290 | 2.0 | 2.0 | 0.00 | 0.00 | 0.00 | 82 | 1013.6 |
| 20260831121223 | 0 | 236 | 4.0 | 5.0 | 0.00 | 0.00 | 0.00 | 82 | 1013.7 |
| 20260831120903 | 0 | 223 | 3.0 | 5.0 | 0.00 | 0.00 | 0.00 | 83 | 1013.6 |
| 20260831120542 | 0 | 175 | 2.0 | 2.0 | 0.00 | 0.00 | 0.00 | 84 | 1013.8 |
| 20260831120222 | 0 | 299 | 0.0 | 0.0 | 0.00 | 0.00 | 0.00 | 84 | 1013.5 |
| 20260831115902 | 0 | 188 | 2.0 | 2.0 | 0.00 | 0.00 | 0.00 | 84 | 1013.5 |
| 20260831115542 | 0 | 245 | 3.0 | 4.0 | 0.00 | 0.00 | 0.00 | 84 | 1013.5 |
| 20260831114903 | 0 | 342 | 3.0 | 5.0 | 0.00 | 0.00 | 0.00 | 84 | 1013.2 |
| 20260831114542 | 0 | 187 | 1.0 | 2.0 | 0.00 | 0.00 | 0.00 | 84 | 1013.4 |
| 20260831114222 | 0 | 197 | 3.0 | 5.0 | 0.00 | 0.00 | 0.00 | 84 | 1013.3 |
| 20260831113902 | 0 | 148 | 1.0 | 1.0 | 0.00 | 0.00 | 0.00 | 84 | 1013.3 |
| 20260831113542 | 0 | 119 | 2.0 | 3.0 | 0.00 | 0.00 | 0.00 | 84 | 1013.2 |
| 20260831113221 | 0 | 233 | 1.0 | 2.0 | 0.00 | 0.00 | 0.00 | 83 | 1013.2 |
| 20260831112902 | 0 | 189 | 2.0 | 5.0 | 0.00 | 0.00 | 0.00 | 83 | 1013.1 |
| 20260831112541 | 0 | 317 | 2.0 | 2.0 | 0.00 | 0.00 | 0.00 | 82 | 1013.1 |
| 20260831111903 | 0 | 250 | 3.0 | 4.0 | 0.00 | 0.00 | 0.00 | 81 | 1013.1 |
| 20260831111542 | 0 | 269 | 3.0 | 5.0 | 0.00 | 0.00 | 0.00 | 81 | 1013.2 |
| 20260831111222 | 0 | 167 | 0.0 | 1.0 | 0.00 | 0.00 | 0.00 | 81 | 1013.1 |
| 20260831110902 | 0 | 261 | 3.0 | 5.0 | 0.00 | 0.00 | 0.00 | 80 | 1013.1 |
| 20260831110541 | 0 | 232 | 2.0 | 6.0 | 0.00 | 0.00 | 0.00 | 81 | 1013.5 |
| 20260831110221 | 0 | 250 | 4.0 | 8.0 | 0.00 | 0.00 | 0.00 | 81 | 1013.2 |
| 20260831105900 | 0 | 154 | 3.0 | 4.0 | 0.00 | 0.00 | 0.00 | 82 | 1013.1 |
| 20260831105540 | 0 | 342 | 2.0 | 2.0 | 0.00 | 0.00 | 0.00 | 82 | 1013.1 |
| 20260831104901 | 0 | 237 | 4.0 | 5.0 | 0.00 | 0.00 | 0.00 | 82 | 1013.2 |
| 20260831104541 | 0 | 257 | 2.0 | 3.0 | 0.00 | 0.00 | 0.00 | 82 | 1013.1 |
| 20260831104221 | 0 | 247 | 5.0 | 8.0 | 0.00 | 0.00 | 0.00 | 82 | 1013.1 |
| 20260831103901 | 0 | 226 | 5.0 | 7.0 | 0.00 | 0.00 | 0.00 | 82 | 1013.0 |
| 20260831103540 | 0 | 229 | 2.0 | 3.0 | 0.00 | 0.00 | 0.00 | 81 | 1013.0 |
| 20260831103220 | 0 | 245 | 3.0 | 5.0 | 0.00 | 0.00 | 0.00 | 81 | 1012.9 |
| 20260831102900 | 0 | 223 | 3.0 | 5.0 | 0.00 | 0.00 | 0.00 | 81 | 1012.9 |
| 20260831102540 | 0 | 240 | 6.0 | 8.0 | 0.00 | 0.00 | 0.00 | 81 | 1012.8 |
| 20260831101900 | 0 | 252 | 4.0 | 7.0 | 0.00 | 0.00 | 0.00 | 81 | 1012.9 |
| 20260831101540 | 0 | 249 | 7.0 | 12.0 | 0.00 | 0.00 | 0.00 | 81 | 1012.8 |
| 20260831101220 | 0 | 51 | 1.0 | 2.0 | 0.00 | 0.00 | 0.00 | 81 | 1012.9 |
| 20260831100900 | 0 | 237 | 3.0 | 7.0 | 0.00 | 0.00 | 0.00 | 81 | 1012.7 |
| 20260831100539 | 0 | 206 | 3.0 | 6.0 | 0.00 | 0.00 | 0.00 | 81 | 1012.6 |
| 20260831100219 | 0 | 248 | 7.0 | 10.0 | 0.00 | 0.00 | 0.00 | 80 | 1012.6 |
| 20260831095859 | 0 | 138 | 5.0 | 8.0 | 0.00 | 0.00 | 0.00 | 81 | 1012.7 |
| 20260831095539 | 0 | 213 | 3.0 | 5.0 | 0.00 | 0.00 | 0.00 | 81 | 1012.5 |
| 20260831094900 | 0 | 212 | 3.0 | 4.0 | 0.00 | 0.00 | 0.00 | 80 | 1012.6 |
| 20260831094539 | 0 | 181 | 3.0 | 5.0 | 0.00 | 0.00 | 0.00 | 80 | 1012.5 |
| 20260831094219 | 0 | 229 | 3.0 | 5.0 | 0.00 | 0.00 | 0.00 | 80 | 1012.3 |
| 20260831093859 | 0 | 238 | 5.0 | 9.0 | 0.00 | 0.00 | 0.00 | 79 | 1012.4 |
| 20260831093539 | 0 | 224 | 8.0 | 9.0 | 0.00 | 0.00 | 0.00 | 78 | 1012.3 |
| 20260831093219 | 0 | 195 | 5.0 | 9.0 | 0.00 | 0.00 | 0.00 | 78 | 1012.2 |
| 20260831092858 | 0 | 208 | 11.0 | 17.0 | 0.00 | 0.00 | 0.00 | 78 | 1012.6 |
| 20260831092538 | 0 | 197 | 3.0 | 5.0 | 0.00 | 0.00 | 0.00 | 79 | 1012.3 |
| 20260831091859 | 0 | 267 | 6.0 | 9.0 | 0.00 | 0.00 | 0.00 | 79 | 1012.4 |
| 20260831091539 | 0 | 161 | 4.0 | 6.0 | 0.00 | 0.00 | 0.00 | 79 | 1012.6 |
| 20260831091219 | 0 | 232 | 5.0 | 7.0 | 0.00 | 0.00 | 0.00 | 79 | 1012.3 |
| 20260831090859 | 0 | 204 | 5.0 | 7.0 | 0.00 | 0.00 | 0.00 | 79 | 1012.2 |
| 20260831090538 | 0 | 243 | 4.0 | 6.0 | 0.00 | 0.00 | 0.00 | 80 | 1012.5 |
| 20260831090218 | 0 | 216 | 11.0 | 16.0 | 0.00 | 0.00 | 0.00 | 78 | 1012.3 |
| 20260831085858 | 0 | 261 | 3.0 | 4.0 | 0.00 | 0.00 | 0.00 | 79 | 1012.2 |
| 20260831085538 | 0 | 223 | 6.0 | 10.0 | 0.00 | 0.00 | 0.00 | 78 | 1012.2 |
| 20260831084859 | 0 | 261 | 5.0 | 9.0 | 0.00 | 0.00 | 0.00 | 78 | 1012.1 |
| 20260831084538 | 0 | 239 | 10.0 | 14.0 | 0.00 | 0.00 | 0.00 | 78 | 1012.4 |
| 20260831084218 | 0 | 232 | 11.0 | 15.0 | 0.00 | 0.00 | 0.00 | 78 | 1012.4 |
| 20260831083858 | 0 | 243 | 5.0 | 8.0 | 0.00 | 0.00 | 0.00 | 78 | 1012.2 |
| 20260831083537 | 0 | 212 | 4.0 | 8.0 | 0.00 | 0.00 | 0.00 | 77 | 1012.1 |
| 20260831083217 | 0 | 214 | 6.0 | 10.0 | 0.00 | 0.00 | 0.00 | 77 | 1012.4 |
| 20260831082857 | 0 | 191 | 2.0 | 4.0 | 0.00 | 0.00 | 0.00 | 77 | 1012.5 |
| 20260831082537 | 0 | 162 | 1.0 | 2.0 | 0.00 | 0.00 | 0.00 | 77 | 1012.5 |
| 20260831081859 | 0 | 279 | 2.0 | 2.0 | 0.00 | 0.00 | 0.00 | 77 | 1012.4 |
| 20260831081537 | 0 | 232 | 4.0 | 5.0 | 0.00 | 0.00 | 0.00 | 77 | 1012.4 |
| 20260831081218 | 0 | 210 | 6.0 | 8.0 | 0.00 | 0.00 | 0.00 | 74 | 1012.4 |
| 20260831080858 | 0 | 237 | 5.0 | 6.0 | 0.00 | 0.00 | 0.00 | 74 | 1012.4 |
| 20260831080536 | 0 | 168 | 4.0 | 5.0 | 0.00 | 0.00 | 0.00 | 75 | 1012.2 |
| 20260831080216 | 0 | 227 | 10.0 | 13.0 | 0.00 | 0.00 | 0.00 | 74 | 1012.5 |
| 20260831075856 | 0 | 237 | 5.0 | 6.0 | 0.00 | 0.00 | 0.00 | 72 | 1012.7 |
| 20260831075536 | 0 | 175 | 3.0 | 4.0 | 0.00 | 0.00 | 0.00 | 73 | 1012.6 |
| 20260831074858 | 0 | 210 | 10.0 | 17.0 | 0.00 | 0.00 | 0.00 | 71 | 1012.7 |
| 20260831074538 | 0 | 239 | 4.0 | 5.0 | 0.00 | 0.00 | 0.00 | 71 | 1012.5 |
| 20260831074217 | 0 | 226 | 6.0 | 8.0 | 0.00 | 0.00 | 0.00 | 72 | 1012.6 |
| 20260831073858 | 0 | 203 | 7.0 | 12.0 | 0.00 | 0.00 | 0.00 | 72 | 1012.6 |
| 20260831073536 | 0 | 160 | 7.0 | 8.0 | 0.00 | 0.00 | 0.00 | 73 | 1012.6 |
| 20260831073217 | 0 | 224 | 4.0 | 7.0 | 0.00 | 0.00 | 0.00 | 74 | 1012.7 |
| 20260831072855 | 0 | 225 | 12.0 | 18.0 | 0.00 | 0.00 | 0.00 | 73 | 1012.8 |
| 20260831072536 | 0 | 230 | 9.0 | 15.0 | 0.00 | 0.00 | 0.00 | 72 | 1012.7 |
| 20260831071857 | 0 | 230 | 5.0 | 6.0 | 0.00 | 0.00 | 0.00 | 70 | 1012.7 |
| 20260831071536 | 0 | 264 | 5.0 | 6.0 | 0.00 | 0.00 | 0.00 | 71 | 1012.6 |
| 20260831071216 | 0 | 244 | 7.0 | 9.0 | 0.00 | 0.00 | 0.00 | 70 | 1012.9 |
| 20260831070856 | 0 | 163 | 3.0 | 4.0 | 0.00 | 0.00 | 0.00 | 71 | 1012.7 |
| 20260831070535 | 0 | 226 | 5.0 | 7.0 | 0.00 | 0.00 | 0.00 | 71 | 1012.8 |
| 20260831070215 | 0 | 267 | 12.0 | 17.0 | 0.00 | 0.00 | 0.00 | 70 | 1012.8 |
| 20260831065855 | 0 | 254 | 5.0 | 11.0 | 0.00 | 0.00 | 0.00 | 72 | 1012.9 |
| 20260831065535 | 0 | 224 | 7.0 | 11.0 | 0.00 | 0.00 | 0.00 | 72 | 1013.0 |
| 20260831064856 | 0 | 230 | 8.0 | 11.0 | 0.00 | 0.00 | 0.00 | 70 | 1012.9 |
| 20260831064535 | 0 | 295 | 2.0 | 7.0 | 0.00 | 0.00 | 0.00 | 70 | 1013.1 |
| 20260831064215 | 0 | 234 | 8.0 | 13.0 | 0.00 | 0.00 | 0.00 | 71 | 1013.1 |
| 20260831063855 | 0 | 270 | 6.0 | 8.0 | 0.00 | 0.00 | 0.00 | 70 | 1012.9 |
| 20260831063534 | 0 | 250 | 5.0 | 8.0 | 0.00 | 0.00 | 0.00 | 68 | 1013.0 |
| 20260831063214 | 0 | 210 | 6.0 | 10.0 | 0.00 | 0.00 | 0.00 | 69 | 1013.2 |
| 20260831062854 | 0 | 260 | 9.0 | 12.0 | 0.00 | 0.00 | 0.00 | 68 | 1013.0 |
| 20260831062534 | 0 | 239 | 5.0 | 9.0 | 0.00 | 0.00 | 0.00 | 70 | 1013.2 |
| 20260831061855 | 0 | 218 | 5.0 | 6.0 | 0.00 | 0.00 | 0.00 | 72 | 1013.2 |
| 20260831061534 | 0 | 254 | 6.0 | 8.0 | 0.00 | 0.00 | 0.00 | 71 | 1013.0 |
| 20260831061214 | 0 | 231 | 6.0 | 11.0 | 0.00 | 0.00 | 0.00 | 70 | 1013.3 |
| 20260831060855 | 0 | 156 | 6.0 | 10.0 | 0.00 | 0.00 | 0.00 | 70 | 1013.2 |
| 20260831060533 | 0 | 226 | 11.0 | 14.0 | 0.00 | 0.00 | 0.00 | 70 | 1013.1 |
| 20260831060213 | 0 | 183 | 5.0 | 8.0 | 0.00 | 0.00 | 0.00 | 71 | 1013.6 |
| 20260831055853 | 0 | 294 | 8.0 | 14.0 | 0.00 | 0.00 | 0.00 | 70 | 1013.4 |
| 20260831055533 | 0 | 218 | 6.0 | 11.0 | 0.00 | 0.00 | 0.00 | 70 | 1013.4 |
| 20260831054855 | 0 | 164 | 4.0 | 6.0 | 0.00 | 0.00 | 0.00 | 71 | 1013.7 |
| 20260831054533 | 0 | 199 | 6.0 | 8.0 | 0.00 | 0.00 | 0.00 | 71 | 1013.9 |
| 20260831054214 | 0 | 192 | 10.0 | 14.0 | 0.00 | 0.00 | 0.00 | 69 | 1014.0 |
| 20260831053853 | 0 | 222 | 10.0 | 17.0 | 0.00 | 0.00 | 0.00 | 70 | 1013.8 |
| 20260831053533 | 0 | 261 | 4.0 | 5.0 | 0.00 | 0.00 | 0.00 | 73 | 1013.9 |
| 20260831053213 | 0 | 237 | 10.0 | 14.0 | 0.00 | 0.00 | 0.00 | 72 | 1014.2 |
| 20260831052853 | 0 | 194 | 4.0 | 6.0 | 0.00 | 0.00 | 0.00 | 73 | 1014.4 |
| 20260831052533 | 0 | 197 | 5.0 | 8.0 | 0.00 | 0.00 | 0.00 | 73 | 1014.3 |
| 20260831051533 | 0 | 247 | 6.0 | 9.0 | 0.00 | 0.00 | 0.00 | 72 | 1014.4 |
| 20260831051213 | 0 | 231 | 8.0 | 13.0 | 0.00 | 0.00 | 0.00 | 73 | 1014.4 |
| 20260831050853 | 0 | 209 | 6.0 | 10.0 | 0.00 | 0.00 | 0.00 | 71 | 1014.5 |
| 20260831050532 | 0 | 231 | 7.0 | 10.0 | 0.00 | 0.00 | 0.00 | 71 | 1014.5 |
| 20260831050212 | 0 | 75 | 4.0 | 6.0 | 0.00 | 0.00 | 0.00 | 73 | 1014.6 |
| 20260831045852 | 0 | 237 | 6.0 | 8.0 | 0.00 | 0.00 | 0.00 | 72 | 1014.8 |
| 20260831045532 | 0 | 236 | 6.0 | 8.0 | 0.00 | 0.00 | 0.00 | 71 | 1014.5 |
| 20260831044853 | 0 | 261 | 8.0 | 11.0 | 0.00 | 0.00 | 0.00 | 71 | 1014.7 |
| 20260831044532 | 0 | 208 | 6.0 | 14.0 | 0.00 | 0.00 | 0.00 | 72 | 1014.6 |
| 20260831044212 | 0 | 270 | 9.0 | 12.0 | 0.00 | 0.00 | 0.00 | 72 | 1014.7 |
| 20260831043852 | 0 | 272 | 5.0 | 6.0 | 0.00 | 0.00 | 0.00 | 72 | 1014.8 |
| 20260831043531 | 0 | 210 | 7.0 | 10.0 | 0.00 | 0.00 | 0.00 | 73 | 1014.8 |
| 20260831043211 | 0 | 204 | 6.0 | 8.0 | 0.00 | 0.00 | 0.00 | 73 | 1014.9 |
| 20260831042851 | 0 | 210 | 3.0 | 3.0 | 0.00 | 0.00 | 0.00 | 73 | 1014.9 |
| 20260831042531 | 0 | 210 | 4.0 | 6.0 | 0.00 | 0.00 | 0.00 | 73 | 1014.9 |
| 20260831041853 | 0 | 161 | 3.0 | 4.0 | 0.00 | 0.00 | 0.00 | 72 | 1015.0 |
| 20260831041532 | 0 | 229 | 4.0 | 10.0 | 0.00 | 0.00 | 0.00 | 71 | 1015.1 |
| 20260831041211 | 0 | 163 | 3.0 | 5.0 | 0.00 | 0.00 | 0.00 | 72 | 1015.3 |
| 20260831040851 | 0 | 245 | 4.0 | 6.0 | 0.00 | 0.00 | 0.00 | 72 | 1015.2 |
| 20260831040531 | 0 | 196 | 6.0 | 10.0 | 0.00 | 0.00 | 0.00 | 72 | 1015.2 |
| 20260831040210 | 0 | 217 | 4.0 | 6.0 | 0.00 | 0.00 | 0.00 | 72 | 1015.5 |
| 20260831035850 | 0 | 33 | 6.0 | 12.0 | 0.00 | 0.00 | 0.00 | 73 | 1015.1 |
| 20260831035530 | 0 | 241 | 8.0 | 11.0 | 0.00 | 0.00 | 0.00 | 72 | 1015.2 |
| 20260831034851 | 0 | 199 | 6.0 | 9.0 | 0.00 | 0.00 | 0.00 | 76 | 1015.2 |